Tasman Mariner — VRWW8 — position and weather

sailwx.info

Track history (hours):
 
Tides and Currents Weather Stations Pressure Air Temp Water Temp Dewpoint Dewpoint Depression Visibility Wind Speed Wind Dir Waves Ship Positions

Tasman Mariner

Last reported at 2015-May-10 08:12 UTC. Time now 2015-May-28 08:10 UTC.
Position S 26°22' E 153°19'.
Warning: this ship's position is 17 days out of date.

Length 184 m; beam 27 m; draft 10 m.

Type: Cargo ship. MMSI: 477860000.

Date/timePositionNaut miles runAvg speedWind from/ knotsBaromVisibWave heightAir tempDewpointWater temp
2015-May-10 08:12S 26°22' E 153°19'913.9
2015-May-10 07:33S 26°31' E 153°17'1313.3
2015-May-10 06:33S 26°43' E 153°10'1111.2
2015-May-10 05:33S 26°54' E 153°11'1413.6
2015-May-10 04:34S 27°05' E 153°19'1211.5
2015-May-10 03:33S 27°17' E 153°15'7 6.5
2015-May-10 02:32S 27°22' E 153°11'0 0.0
2015-May-10 01:32S 27°22' E 153°11'0 0.0
2015-May-10 00:32S 27°22' E 153°11'0 0.0
2015-May-09 23:32S 27°22' E 153°11'0 0.0
2015-May-09 22:32S 27°22' E 153°11'0 0.0
2015-May-09 21:32S 27°22' E 153°11'0 0.0
2015-May-09 20:32S 27°22' E 153°11'0 0.0
2015-May-09 19:32S 27°22' E 153°11'0 0.0
2015-May-09 18:32S 27°22' E 153°11'0 0.0
2015-May-09 17:32S 27°22' E 153°11'0 0.0
2015-May-09 16:32S 27°22' E 153°11'0 0.0
2015-May-09 15:32S 27°22' E 153°11'0 0.0
2015-May-09 14:32S 27°22' E 153°11'0 0.0
2015-May-09 13:32S 27°22' E 153°11'0 0.0
2015-May-09 12:32S 27°22' E 153°11'0 0.0
2015-May-09 11:32S 27°22' E 153°11'0 0.0
2015-May-09 10:32S 27°22' E 153°11'0 0.0
2015-May-09 09:32S 27°22' E 153°11'0 0.0
2015-May-09 08:32S 27°22' E 153°11'0 0.0
2015-May-09 07:32S 27°22' E 153°11'0 0.0
2015-May-09 06:32S 27°22' E 153°11'0 0.0
2015-May-09 05:32S 27°22' E 153°11'0 0.0
2015-May-09 04:32S 27°22' E 153°11'0 0.0
2015-May-09 03:32S 27°22' E 153°11'0 0.0
2015-May-09 02:32S 27°22' E 153°11'0 0.0
2015-May-09 01:32S 27°22' E 153°11'0 0.0
2015-May-09 00:32S 27°22' E 153°11'0 0.0
2015-May-08 23:32S 27°22' E 153°11'0 0.0
2015-May-08 22:32S 27°22' E 153°11'0 0.0
2015-May-08 21:32S 27°22' E 153°11'0 0.0
2015-May-08 20:32S 27°22' E 153°11'0 0.0
2015-May-08 19:32S 27°22' E 153°11'0 0.0
2015-May-08 18:32S 27°22' E 153°11'0 0.0
2015-May-08 17:32S 27°22' E 153°11'0 0.0
2015-May-08 16:32S 27°22' E 153°11'0 0.2
2015-May-08 15:33S 27°21' E 153°11'10 9.7
2015-May-08 14:33S 27°15' E 153°19'1212.4
2015-May-08 13:33S 27°03' E 153°16'1414.3
2015-May-08 12:34S 26°50' E 153°09'8 8.2
2015-May-08 11:33S 26°43' E 153°14'1010.4
2015-May-08 10:33S 26°43' E 153°26'5 4.9
2015-May-08 09:33S 26°43' E 153°32'3 2.5
2015-May-08 08:32S 26°43' E 153°34'3 2.3
2015-May-08 07:17S 26°42' E 153°31'6 7.9
2015-May-08 06:33S 26°45' E 153°37'2010.2
2015-May-08 04:33S 27°05' E 153°39'1110.7
2015-May-08 03:33S 27°16' E 153°39'1210.6
2015-May-08 02:28S 27°28' E 153°40'910.4
2015-May-08 01:33S 27°37' E 153°40'1010.3
2015-May-08 00:33S 27°47' E 153°41'1010.1
2015-May-07 23:33S 27°57' E 153°41'268 9.2
2015-May-06 18:24S 32°20' E 152°41'8 9.4
2015-May-06 17:33S 32°27' E 152°38'1010.2
2015-May-06 16:33S 32°36' E 152°32'1010.0
2015-May-06 15:33S 32°44' E 152°25'1010.0
2015-May-06 14:33S 32°52' E 152°17'1010.1
2015-May-06 13:33S 33°00' E 152°11'1010.0
2015-May-06 12:33S 33°09' E 152°04'1110.2
2015-May-06 11:31S 33°18' E 151°57'250 5.1
2015-May-04 10:20S 37°12' E 150°11'1013.1
2015-May-04 09:33S 37°22' E 150°09'1312.7
2015-May-04 08:33S 37°34' E 150°04'1312.7
2015-May-04 07:33S 37°44' E 149°54'1313.0
2015-May-04 06:33S 37°53' E 149°43'1512.6
2015-May-04 05:24S 38°02' E 149°28'1312.6
2015-May-04 04:22S 38°11' E 149°16'1213.5
2015-May-04 03:28S 38°18' E 149°04'1213.7
2015-May-04 02:33S 38°25' E 148°50'1413.7
2015-May-04 01:32S 38°34' E 148°36'1313.5
2015-May-04 00:33S 38°42' E 148°23'1312.9
2015-May-03 23:31S 38°49' E 148°08'1313.1
2015-May-03 22:32S 38°53' E 147°53'1313.2
2015-May-03 21:33S 38°58' E 147°37'1413.5
2015-May-03 20:33S 39°03' E 147°21'1413.9
2015-May-03 19:33S 39°08' E 147°04'1414.2
2015-May-03 18:33S 39°13' E 146°47'1414.2
2015-May-03 17:33S 39°16' E 146°30'1414.1
2015-May-03 16:34S 39°15' E 146°12'1414.1
2015-May-03 15:34S 39°07' E 145°57'1514.1
2015-May-03 14:30S 38°59' E 145°41'29 0.6
2015-May-01 16:26S 38°42' E 145°10'1515.4
2015-May-01 15:28S 38°50' E 145°27'1915.4
2015-May-01 14:12S 38°60' E 145°49'1015.3
2015-May-01 13:33S 39°05' E 145°60'1714.9
2015-May-01 12:26S 39°12' E 146°19'4815.7
2015-May-01 09:22S 38°57' E 147°18'5040.3
2015-May-01 08:07S 39°43' E 147°42'5699.3
2015-May-01 07:33S 38°47' E 147°53'1615.7
2015-May-01 06:33S 38°42' E 148°12'1313.1
2015-May-01 05:33S 38°35' E 148°27'1212.3
2015-May-01 04:33S 38°29' E 148°40'1312.5
2015-May-01 03:32S 38°21' E 148°53'1212.7
2015-May-01 02:33S 38°14' E 149°06'2014.2
2015-May-01 01:09S 38°03' E 149°27'1514.4
2015-May-01 00:05S 37°54' E 149°43'711.9
2015-Apr-30 23:31S 37°50' E 149°50'1211.9
2015-Apr-30 22:33S 37°44' E 150°02'1413.7
2015-Apr-30 21:33S 37°34' E 150°15'1413.8
2015-Apr-30 20:33S 37°22' E 150°21'  
Track history (hours):
 
Tides and Currents Weather Stations Pressure Air Temp Water Temp Dewpoint Dewpoint Depression Visibility Wind Speed Wind Dir Waves Ship Positions

Tasman Mariner

Last reported at 2015-May-10 08:12 UTC. Time now 2015-May-28 08:10 UTC.
Position S 26°22' E 153°19'.
Warning: this ship's position is 17 days out of date.

Length 184 m; beam 27 m; draft 10 m.

Type: Cargo ship. MMSI: 477860000.

Date/timePositionNaut miles runAvg speedWind from/ knotsBaromVisibWave heightAir tempDewpointWater temp
2015-May-10 08:12S 26°22' E 153°19'913.9
2015-May-10 07:33S 26°31' E 153°17'1313.3
2015-May-10 06:33S 26°43' E 153°10'1111.2
2015-May-10 05:33S 26°54' E 153°11'1413.6
2015-May-10 04:34S 27°05' E 153°19'1211.5
2015-May-10 03:33S 27°17' E 153°15'7 6.5
2015-May-10 02:32S 27°22' E 153°11'0 0.0
2015-May-10 01:32S 27°22' E 153°11'0 0.0
2015-May-10 00:32S 27°22' E 153°11'0 0.0
2015-May-09 23:32S 27°22' E 153°11'0 0.0
2015-May-09 22:32S 27°22' E 153°11'0 0.0
2015-May-09 21:32S 27°22' E 153°11'0 0.0
2015-May-09 20:32S 27°22' E 153°11'0 0.0
2015-May-09 19:32S 27°22' E 153°11'0 0.0
2015-May-09 18:32S 27°22' E 153°11'0 0.0
2015-May-09 17:32S 27°22' E 153°11'0 0.0
2015-May-09 16:32S 27°22' E 153°11'0 0.0
2015-May-09 15:32S 27°22' E 153°11'0 0.0
2015-May-09 14:32S 27°22' E 153°11'0 0.0
2015-May-09 13:32S 27°22' E 153°11'0 0.0
2015-May-09 12:32S 27°22' E 153°11'0 0.0
2015-May-09 11:32S 27°22' E 153°11'0 0.0
2015-May-09 10:32S 27°22' E 153°11'0 0.0
2015-May-09 09:32S 27°22' E 153°11'0 0.0
2015-May-09 08:32S 27°22' E 153°11'0 0.0
2015-May-09 07:32S 27°22' E 153°11'0 0.0
2015-May-09 06:32S 27°22' E 153°11'0 0.0
2015-May-09 05:32S 27°22' E 153°11'0 0.0
2015-May-09 04:32S 27°22' E 153°11'0 0.0
2015-May-09 03:32S 27°22' E 153°11'0 0.0
2015-May-09 02:32S 27°22' E 153°11'0 0.0
2015-May-09 01:32S 27°22' E 153°11'0 0.0
2015-May-09 00:32S 27°22' E 153°11'0 0.0
2015-May-08 23:32S 27°22' E 153°11'0 0.0
2015-May-08 22:32S 27°22' E 153°11'0 0.0
2015-May-08 21:32S 27°22' E 153°11'0 0.0
2015-May-08 20:32S 27°22' E 153°11'0 0.0
2015-May-08 19:32S 27°22' E 153°11'0 0.0
2015-May-08 18:32S 27°22' E 153°11'0 0.0
2015-May-08 17:32S 27°22' E 153°11'0 0.0
2015-May-08 16:32S 27°22' E 153°11'0 0.2
2015-May-08 15:33S 27°21' E 153°11'10 9.7
2015-May-08 14:33S 27°15' E 153°19'1212.4
2015-May-08 13:33S 27°03' E 153°16'1414.3
2015-May-08 12:34S 26°50' E 153°09'8 8.2
2015-May-08 11:33S 26°43' E 153°14'1010.4
2015-May-08 10:33S 26°43' E 153°26'5 4.9
2015-May-08 09:33S 26°43' E 153°32'3 2.5
2015-May-08 08:32S 26°43' E 153°34'3 2.3
2015-May-08 07:17S 26°42' E 153°31'6 7.9
2015-May-08 06:33S 26°45' E 153°37'2010.2
2015-May-08 04:33S 27°05' E 153°39'1110.7
2015-May-08 03:33S 27°16' E 153°39'1210.6
2015-May-08 02:28S 27°28' E 153°40'910.4
2015-May-08 01:33S 27°37' E 153°40'1010.3
2015-May-08 00:33S 27°47' E 153°41'1010.1
2015-May-07 23:33S 27°57' E 153°41'268 9.2
2015-May-06 18:24S 32°20' E 152°41'8 9.4
2015-May-06 17:33S 32°27' E 152°38'1010.2
2015-May-06 16:33S 32°36' E 152°32'1010.0
2015-May-06 15:33S 32°44' E 152°25'1010.0
2015-May-06 14:33S 32°52' E 152°17'1010.1
2015-May-06 13:33S 33°00' E 152°11'1010.0
2015-May-06 12:33S 33°09' E 152°04'1110.2
2015-May-06 11:31S 33°18' E 151°57'250 5.1
2015-May-04 10:20S 37°12' E 150°11'1013.1
2015-May-04 09:33S 37°22' E 150°09'1312.7
2015-May-04 08:33S 37°34' E 150°04'1312.7
2015-May-04 07:33S 37°44' E 149°54'1313.0
2015-May-04 06:33S 37°53' E 149°43'1512.6
2015-May-04 05:24S 38°02' E 149°28'1312.6
2015-May-04 04:22S 38°11' E 149°16'1213.5
2015-May-04 03:28S 38°18' E 149°04'1213.7
2015-May-04 02:33S 38°25' E 148°50'1413.7
2015-May-04 01:32S 38°34' E 148°36'1313.5
2015-May-04 00:33S 38°42' E 148°23'1312.9
2015-May-03 23:31S 38°49' E 148°08'1313.1
2015-May-03 22:32S 38°53' E 147°53'1313.2
2015-May-03 21:33S 38°58' E 147°37'1413.5
2015-May-03 20:33S 39°03' E 147°21'1413.9
2015-May-03 19:33S 39°08' E 147°04'1414.2
2015-May-03 18:33S 39°13' E 146°47'1414.2
2015-May-03 17:33S 39°16' E 146°30'1414.1
2015-May-03 16:34S 39°15' E 146°12'1414.1
2015-May-03 15:34S 39°07' E 145°57'1514.1
2015-May-03 14:30S 38°59' E 145°41'29 0.6
2015-May-01 16:26S 38°42' E 145°10'1515.4
2015-May-01 15:28S 38°50' E 145°27'1915.4
2015-May-01 14:12S 38°60' E 145°49'1015.3
2015-May-01 13:33S 39°05' E 145°60'1714.9
2015-May-01 12:26S 39°12' E 146°19'4815.7
2015-May-01 09:22S 38°57' E 147°18'5040.3
2015-May-01 08:07S 39°43' E 147°42'5699.3
2015-May-01 07:33S 38°47' E 147°53'1615.7
2015-May-01 06:33S 38°42' E 148°12'1313.1
2015-May-01 05:33S 38°35' E 148°27'1212.3
2015-May-01 04:33S 38°29' E 148°40'1312.5
2015-May-01 03:32S 38°21' E 148°53'1212.7
2015-May-01 02:33S 38°14' E 149°06'2014.2
2015-May-01 01:09S 38°03' E 149°27'1514.4
2015-May-01 00:05S 37°54' E 149°43'711.9
2015-Apr-30 23:31S 37°50' E 149°50'1211.9
2015-Apr-30 22:33S 37°44' E 150°02'1413.7
2015-Apr-30 21:33S 37°34' E 150°15'1413.8
2015-Apr-30 20:33S 37°22' E 150°21'  

Dump ship's entire track history